• In Romania
  • List of Countries
  • For 7 days
  • Water Temperature
  • Satellite Maps
  • Weather Map
  • Weather Widgets
  • user-avatar
    Login

    Hourly Weather Tervu

    Today, 23 October, Tuesday

    Time Temperature Precipitation Wind Pressure Humidity
    00:00 +3°C° 0 mm 6 mps 748 mmHg 77%
    01:00 +3°C° 0 mm 6 mps 747 mmHg 77%
    02:00 +2°C° 0 mm 5 mps 747 mmHg 79%
    03:00 +2°C° 0 mm 5 mps 747 mmHg 79%
    04:00 +2°C° 0 mm 6 mps 746 mmHg 80%
    05:00 +2°C° 0 mm 6 mps 746 mmHg 80%
    06:00 +2°C° 0 mm 5 mps 745 mmHg 81%
    07:00 +2°C° 0 mm 5 mps 745 mmHg 82%
    08:00 +3°C° 0 mm 4 mps 744 mmHg 82%
    09:00 +4°C° 0 mm 4 mps 744 mmHg 78%
    10:00 +5°C° 0 mm 4 mps 744 mmHg 75%
    11:00 +6°C° 0 mm 4 mps 743 mmHg 71%
    12:00 +7°C° 0.2 mm 3 mps 743 mmHg 71%
    13:00 +7°C° 0.2 mm 3 mps 742 mmHg 71%
    14:00 +7°C° 0.2 mm 3 mps 742 mmHg 71%
    15:00 +5°C° 0.1 mm 3 mps 741 mmHg 75%
    16:00 +5°C° 0.1 mm 3 mps 741 mmHg 79%
    17:00 +4°C° 0.1 mm 3 mps 740 mmHg 83%
    18:00 +4°C° 0.1 mm 3 mps 740 mmHg 84%
    19:00 +4°C° 0.1 mm 3 mps 740 mmHg 85%
    20:00 +3°C° 0.1 mm 3 mps 739 mmHg 87%
    21:00 +3°C° 0.1 mm 3 mps 739 mmHg 87%
    22:00 +3°C° 0.1 mm 3 mps 739 mmHg 88%
    23:00 +3°C° 0.1 mm 3 mps 739 mmHg 88%

    Tomorrow, 24 October, Wednesday

    Time Temperature Precipitation Wind Pressure Humidity
    00:00 +3°C° 0.2 mm 3 mps 738 mmHg 89%
    01:00 +3°C° 0.2 mm 4 mps 738 mmHg 89%
    02:00 +3°C° 0.2 mm 4 mps 738 mmHg 90%
    03:00 +3°C° 0.3 mm 4 mps 738 mmHg 89%
    04:00 +2°C° 0.3 mm 5 mps 738 mmHg 89%
    05:00 +2°C° 0.3 mm 5 mps 738 mmHg 88%
    06:00 +2°C° 0.1 mm 5 mps 739 mmHg 88%
    07:00 +2°C° 0.1 mm 5 mps 739 mmHg 88%
    08:00 +2°C° 0.1 mm 5 mps 739 mmHg 88%
    09:00 +2°C° 0 mm 5 mps 740 mmHg 86%
    10:00 +3°C° 0 mm 5 mps 740 mmHg 83%
    11:00 +4°C° 0 mm 4 mps 741 mmHg 81%
    12:00 +4°C° 0 mm 4 mps 741 mmHg 80%
    13:00 +4°C° 0 mm 4 mps 741 mmHg 80%
    14:00 +4°C° 0 mm 4 mps 742 mmHg 79%
    15:00 +4°C° 0 mm 4 mps 742 mmHg 81%
    16:00 +3°C° 0 mm 4 mps 742 mmHg 83%
    17:00 +3°C° 0 mm 4 mps 743 mmHg 85%
    18:00 +3°C° 0 mm 4 mps 743 mmHg 85%
    19:00 +3°C° 0 mm 4 mps 743 mmHg 85%
    20:00 +2°C° 0 mm 3 mps 743 mmHg 86%
    21:00 +2°C° 0 mm 3 mps 743 mmHg 86%
    22:00 +2°C° 0 mm 3 mps 743 mmHg 86%
    23:00 +2°C° 0 mm 3 mps 743 mmHg 86%

    Day after tomorrow, 25 October, Thursday

    Time Temperature Precipitation Wind Pressure Humidity
    00:00 +2°C° 0.1 mm 3 mps 743 mmHg 87%
    01:00 +2°C° 0.1 mm 3 mps 743 mmHg 88%
    02:00 +2°C° 0.1 mm 3 mps 743 mmHg 88%
    03:00 +2°C° 0 mm 3 mps 743 mmHg 88%
    04:00 +2°C° 0 mm 3 mps 742 mmHg 87%
    05:00 +1°C° 0 mm 3 mps 742 mmHg 86%
    06:00 +1°C° 0 mm 3 mps 742 mmHg 87%
    07:00 +1°C° 0 mm 3 mps 742 mmHg 88%
    08:00 +1°C° 0 mm 3 mps 742 mmHg 88%
    09:00 +1°C° 0 mm 3 mps 742 mmHg 84%
    10:00 +2°C° 0 mm 3 mps 741 mmHg 80%
    11:00 +3°C° 0 mm 3 mps 741 mmHg 76%
    12:00 +3°C° 0 mm 4 mps 741 mmHg 75%
    13:00 +3°C° 0 mm 4 mps 741 mmHg 74%
    14:00 +3°C° 0 mm 4 mps 741 mmHg 72%
    15:00 +3°C° 0 mm 4 mps 741 mmHg 75%
    16:00 +1°C° 0 mm 4 mps 741 mmHg 78%
    17:00 +1°C° 0 mm 5 mps 741 mmHg 80%
    18:00 0°C° 0 mm 5 mps 741 mmHg 81%
    19:00 0°C° 0 mm 5 mps 741 mmHg 82%
    20:00 0°C° 0 mm 5 mps 740 mmHg 83%
    21:00 -1°C° 0 mm 5 mps 740 mmHg 84%
    22:00 -1°C° 0 mm 5 mps 740 mmHg 84%
    23:00 -1°C° 0 mm 5 mps 740 mmHg 84%

    26 October, Friday

    Time Temperature Precipitation Wind Pressure Humidity
    00:00 -1°C° 0 mm 5 mps 740 mmHg 85%
    01:00 -2°C° 0 mm 6 mps 740 mmHg 85%
    02:00 -2°C° 0 mm 6 mps 739 mmHg 85%
    03:00 -2°C° 0 mm 6 mps 739 mmHg 84%
    04:00 -2°C° 0 mm 6 mps 739 mmHg 84%
    05:00 -2°C° 0 mm 7 mps 739 mmHg 83%
    06:00 -1°C° 0 mm 7 mps 739 mmHg 81%
    07:00 -1°C° 0 mm 7 mps 739 mmHg 79%
    08:00 -1°C° 0 mm 7 mps 739 mmHg 77%
    09:00 -1°C° 0 mm 8 mps 739 mmHg 75%
    10:00 -1°C° 0 mm 8 mps 739 mmHg 73%
    11:00 -1°C° 0 mm 8 mps 739 mmHg 71%
    12:00 -1°C° 0.1 mm 8 mps 739 mmHg 71%
    13:00 -1°C° 0.1 mm 8 mps 739 mmHg 71%
    14:00 -1°C° 0.1 mm 8 mps 740 mmHg 71%
    15:00 -1°C° 0.1 mm 8 mps 740 mmHg 72%
    16:00 -1°C° 0.1 mm 8 mps 740 mmHg 73%
    17:00 -1°C° 0.1 mm 8 mps 740 mmHg 73%
    18:00 -1°C° 0.1 mm 7 mps 741 mmHg 74%
    19:00 -1°C° 0.1 mm 7 mps 741 mmHg 75%
    20:00 -1°C° 0.1 mm 7 mps 741 mmHg 75%
    21:00 -1°C° 0 mm 6 mps 741 mmHg 76%
    22:00 -2°C° 0 mm 6 mps 741 mmHg 78%
    23:00 -1°C° 0 mm 5 mps 741 mmHg 79%

    27 October, Saturday

    Time Temperature Precipitation Wind Pressure Humidity
    00:00 -1°C° 0 mm 5 mps 742 mmHg 80%
    01:00 -1°C° 0 mm 5 mps 742 mmHg 80%
    02:00 -1°C° 0 mm 4 mps 742 mmHg 81%
    03:00 -1°C° 0 mm 4 mps 742 mmHg 82%
    04:00 -1°C° 0 mm 4 mps 742 mmHg 84%
    05:00 -1°C° 0 mm 4 mps 742 mmHg 85%
    06:00 -1°C° 0 mm 3 mps 742 mmHg 85%
    07:00 -1°C° 0 mm 3 mps 742 mmHg 86%
    08:00 -1°C° 0 mm 3 mps 742 mmHg 86%
    09:00 -1°C° 0 mm 4 mps 742 mmHg 82%
    10:00 -1°C° 0 mm 4 mps 742 mmHg 77%
    11:00 0°C° 0 mm 5 mps 742 mmHg 73%
    12:00 0°C° 0 mm 5 mps 742 mmHg 72%
    13:00 0°C° 0 mm 5 mps 743 mmHg 72%
    14:00 0°C° 0 mm 5 mps 743 mmHg 71%
    15:00 0°C° 0 mm 5 mps 743 mmHg 72%
    16:00 -2°C° 0 mm 6 mps 743 mmHg 73%
    17:00 -2°C° 0 mm 6 mps 744 mmHg 74%
    18:00 -2°C° 0 mm 6 mps 744 mmHg 73%
    19:00 -2°C° 0 mm 6 mps 745 mmHg 72%
    20:00 -2°C° 0 mm 6 mps 745 mmHg 72%
    21:00 -1°C° 0 mm 5 mps 746 mmHg 72%
    22:00 -2°C° 0 mm 5 mps 747 mmHg 72%
    23:00 -2°C° 0 mm 5 mps 747 mmHg 73%

    28 October, Sunday

    Time Temperature Precipitation Wind Pressure Humidity
    00:00 -2°C° 0 mm 5 mps 748 mmHg 74%
    01:00 -2°C° 0 mm 5 mps 749 mmHg 76%
    02:00 -2°C° 0 mm 5 mps 749 mmHg 78%
    03:00 -2°C° 0.1 mm 5 mps 750 mmHg 79%
    04:00 -2°C° 0.1 mm 4 mps 751 mmHg 79%
    05:00 -2°C° 0.1 mm 4 mps 751 mmHg 80%
    06:00 -2°C° 0.1 mm 4 mps 752 mmHg 80%
    07:00 -2°C° 0.1 mm 4 mps 753 mmHg 80%
    08:00 -2°C° 0.1 mm 4 mps 753 mmHg 80%
    09:00 -2°C° 0.1 mm 4 mps 754 mmHg 77%
    10:00 -1°C° 0.1 mm 4 mps 755 mmHg 73%
    11:00 -1°C° 0.1 mm 4 mps 755 mmHg 69%
    12:00 -1°C° 0 mm 4 mps 756 mmHg 68%
    13:00 -1°C° 0 mm 4 mps 756 mmHg 67%
    14:00 -1°C° 0 mm 4 mps 757 mmHg 65%
    15:00 -1°C° 0 mm 4 mps 757 mmHg 69%
    16:00 -2°C° 0 mm 4 mps 758 mmHg 73%
    17:00 -3°C° 0 mm 4 mps 758 mmHg 77%
    18:00 -2°C° 0.1 mm 3 mps 759 mmHg 78%
    19:00 -2°C° 0.1 mm 3 mps 759 mmHg 80%
    20:00 -2°C° 0.1 mm 3 mps 760 mmHg 81%
    21:00 -2°C° 0.1 mm 3 mps 761 mmHg 81%
    22:00 -4°C° 0.1 mm 3 mps 761 mmHg 82%
    23:00 -4°C° 0.1 mm 3 mps 762 mmHg 83%

    29 October, Monday

    Time Temperature Precipitation Wind Pressure Humidity
    00:00 -4°C° 0 mm 3 mps 762 mmHg 84%
    01:00 -4°C° 0 mm 3 mps 763 mmHg 84%
    02:00 -3°C° 0 mm 2 mps 763 mmHg 85%
    03:00 -3°C° 0 mm 2 mps 763 mmHg 85%
    04:00 -3°C° 0 mm 2 mps 764 mmHg 85%
    05:00 -3°C° 0 mm 2 mps 764 mmHg 85%
    06:00 -4°C° 0.1 mm 2 mps 764 mmHg 85%
    07:00 -4°C° 0.1 mm 2 mps 765 mmHg 84%
    08:00 -5°C° 0.1 mm 3 mps 765 mmHg 84%
    09:00 -4°C° 0.1 mm 3 mps 766 mmHg 77%
    10:00 -2°C° 0.1 mm 3 mps 766 mmHg 71%
    11:00 -1°C° 0.1 mm 3 mps 766 mmHg 64%
    12:00 -1°C° 0.1 mm 3 mps 767 mmHg 62%
    13:00 -1°C° 0.1 mm 3 mps 767 mmHg 60%
    14:00 -1°C° 0.1 mm 3 mps 767 mmHg 59%
    15:00 -2°C° 0.1 mm 4 mps 767 mmHg 62%
    16:00 -3°C° 0.1 mm 4 mps 767 mmHg 64%
    17:00 -5°C° 0.1 mm 5 mps 767 mmHg 67%
    18:00 -4°C° 0 mm 5 mps 768 mmHg 67%
    19:00 -4°C° 0 mm 5 mps 768 mmHg 67%
    20:00 -4°C° 0 mm 5 mps 768 mmHg 67%
    21:00 -4°C° 0.2 mm 5 mps 768 mmHg 68%
    22:00 -4°C° 0.2 mm 6 mps 769 mmHg 69%
    23:00 -4°C° 0.2 mm 6 mps 769 mmHg 69%
    Show more